Weather in Terespol

Poland     52°04′27″N   23°36′55″E
temp.,
°C
wind,
m/s
gust,
m/s
humid.,
%
clouds,
%
prec.,
mm/h
press.,
hPa
HPBL,
m
12 may, wed
wed1223:00+14se515675 0.0 1015345
02:00+12se5158251 0.0 1014357
05:00+12ese6148367 0.0 1014323
08:00+17ese611714 0.0 1013503
11:00+21ese810614 0.0 10121449
14:00+19ese896267 0.1 10121434
17:00+19ese79530 0.0 10111718
20:00+13se511650 0.0 1011394
13 may, thu
thu1323:00+10se512690 0.0 1011437
02:00+8ese49780 0.0 1009230
05:00+6ese39864 0.0 1008213
08:00+11ese57676 0.0 1006563
11:00+15se665415 0.0 10041356
14:00+18se565098 0.0 10021826
17:00+14se5875100 0.1 1001644
20:00+12ese4793100 1.3 1001385
14 may, fri
fri1423:00+11ese379696 1.0 1000315
02:00+11sse379643 1.5 1000183
05:00+11se2597100 0.0 1000175
08:00+12ssw2393100 0.1 1001287
11:00+15sw448494 0.7 1002743
14:00+15sw4481100 1.6 1004709
17:00+16wsw6779100 1.4 1004858
20:00+12wsw51089100 2.3 1006437
15 may, sat
sat1523:00+9wsw3894100 0.0 1007218
02:00+10sw4790100 0.0 1008286
05:00+8wsw499298 0.0 1008366
08:00+10w4585100 0.0 1009489
11:00+10w4587100 0.0 1010468
14:00+12wnw3580100 0.0 1010557
17:00+16nnw246677 0.1 1009953
20:00+11ene338855 0.1 100937
16 may, sun
sun1623:00+9se22935 0.0 101030
02:00+8se239418 0.0 101133
05:00+8ese22932 0.0 101022
08:00+14ese45766 0.0 1011373
11:00+19ese4560100 0.0 10101256
14:00+20ese5660100 1.4 10091511
17:00+17ese5971100 2.5 1008338
20:00+13e3992100 3.5 1008332